Regional Weather Roundup
Issued by NWS

Home | Current Version | Previous Version | Text Only | Print | Product List | Glossary On
Versions: 1 2 3 4 5 6 7 8 9 10 11 12 13 14 15 16 17 18 19 20 21 22 23 24 25 26 27 28 29 30 31 32 33 34 35 36 37 38 39 40 41 42 43 44 45 46 47 48 49 50
000
ASUS43 KLSX 191057
RWRMO

WEATHER SUMMARY FOR MISSOURI
NATIONAL WEATHER SERVICE SPRINGFIELD MO
500 AM CST MON FEB 19 2018

NOTE: "FAIR" INDICATES FEW OR NO CLOUDS BELOW 12,000 FEET WITH NO
       SIGNIFICANT WEATHER AND/OR OBSTRUCTIONS TO VISIBILITY.
       CURRENT SKY AND/OR WEATHER CONDITIONS ARE NOT AVAILABLE FOR
       CHILLICOTHE AND FARMINGTON.

MOZ001>031-035>038-043-044-053-054-191200-
...NORTHERN AND WESTERN MISSOURI...

CITY           SKY/WX    TMP DP  RH WIND       PRES   REMARKS
KANSAS CTY INT CLOUDY    63  58  83 S30G40    29.59F
LEE`S SUMMIT   CLOUDY    61  59  93 S26G37    29.64S
ST JOSEPH      CLOUDY    54  54 100 SE6       29.62S FOG
CHILLICOTHE      N/A     52  51  97 SE6       29.66F

$$
MOZ066>068-077>081-088>096-101>105-191200-
...SOUTHWEST MISSOURI...

CITY           SKY/WX    TMP DP  RH WIND       PRES   REMARKS
SPRINGFIELD    LGT RAIN  57  55  93 S14       29.80F
JOPLIN         LGT RAIN  62  59  90 S24G37    29.77R

$$
MOZ032>034-039>042-045>050-055>058-069>072-191200-
...CENTRAL MISSOURI...

CITY           SKY/WX    TMP DP  RH WIND       PRES   REMARKS
COLUMBIA       NOT AVBL
JEFFERSON CITY CLOUDY    60  53  77 S12       29.78S
ROLLA          CLOUDY    57  55  93 S18G31    29.83S
SEDALIA        CLOUDY    61  57  87 S22G31    29.72R
WARRENSBURG    CLOUDY    61  55  82 S23G30    29.68S
OSAGE BEACH    CLOUDY    57  54  88 S10       29.80F THUNDER

$$
MOZ051-052-059>065-191200-
...EAST CENTRAL MISSOURI...

CITY           SKY/WX    TMP DP  RH WIND       PRES   REMARKS
ST LOUIS INTL  CLOUDY    58  54  86 S15G24    29.85S

$$
MOZ072>076-082>087-097>100-106>115-191200-
...SOUTH CENTRAL AND SOUTHEAST MISSOURI...

CITY           SKY/WX    TMP DP  RH WIND       PRES   REMARKS
CAPE GIRARDEAU CLOUDY    56  54  93 S13       30.01S
POPLAR BLUFF   CLOUDY    56  55  97 S13       30.01R
WEST PLAINS    LGT RAIN  53  53 100 S13       29.94S FOG

$$


USA.gov is the U.S. government's official web portal to all federal, state and local government web resources and services.